EW7318 Weather Reports


time (UTC)temp
C
wind
direction
speed
KPH
gust
KPH
rain 1hr
cm
rain 24hr
cm
rain mn
cm
humidity
%
barometer
mb
20210920063200 11 149 0.0 0.0 0.00 0.00 0.00 98 1014.7
20210920062654 11 149 0.0 0.0 0.00 0.00 0.00 97 1014.5
20210920062143 11 149 0.0 0.0 0.00 0.00 0.00 97 1014.6
20210920061625 11 149 0.0 0.0 0.00 0.00 0.00 97 1014.7
20210920061117 11 149 0.0 0.0 0.00 0.00 0.00 97 1014.9
20210920060608 11 149 0.0 0.0 0.00 0.00 0.00 97 1014.9
20210920060050 11 149 0.0 0.0 0.00 0.00 0.00 97 1014.8
20210920055542 11 149 0.0 0.0 0.00 0.00 0.00 97 1015.0
20210920055036 11 149 0.0 0.0 0.00 0.00 0.00 97 1014.6
20210920054525 11 149 0.0 0.0 0.00 0.00 0.00 97 1014.7
20210920054009 11 149 0.0 0.0 0.00 0.00 0.00 97 1014.6
20210920053459 11 149 0.0 0.0 0.00 0.00 0.00 97 1014.5
20210920052941 11 149 0.0 0.0 0.00 0.00 0.00 97 1014.7
20210920052431 11 149 0.0 0.0 0.00 0.00 0.00 97 1014.6
20210920051924 11 149 0.0 0.0 0.00 0.00 0.00 97 1014.5
20210920051404 11 149 0.0 0.0 0.00 0.00 0.00 97 1014.5
20210920050857 11 149 0.0 0.0 0.00 0.00 0.00 97 1014.3
20210920050349 12 150 0.0 0.0 0.00 0.00 0.00 97 1014.5
20210920045841 12 150 0.0 0.0 0.00 0.00 0.00 97 1014.5
20210920045335 11 150 0.0 0.0 0.00 0.00 0.00 97 1014.5
20210920044824 12 150 0.0 0.0 0.00 0.00 0.00 97 1014.4
20210920044316 12 150 0.0 0.0 0.00 0.00 0.00 97 1014.4
20210920043809 12 149 0.0 0.0 0.00 0.00 0.00 97 1014.4
20210920043303 12 149 0.0 0.0 0.00 0.00 0.00 97 1014.4
20210920042747 12 149 0.0 0.0 0.00 0.00 0.00 96 1014.2
20210920042235 12 149 0.0 0.0 0.00 0.00 0.00 96 1014.4
20210920041725 12 149 0.0 0.0 0.00 0.00 0.00 96 1014.4
20210920041208 12 149 0.0 0.0 0.00 0.00 0.00 96 1014.4
20210920040704 12 149 0.0 0.0 0.00 0.00 0.00 96 1014.3
20210920040153 12 149 0.0 0.0 0.00 0.00 0.00 96 1014.3
20210920035643 12 149 0.0 0.0 0.00 0.00 0.00 96 1014.2
20210920035135 12 149 0.0 0.0 0.00 0.00 0.00 96 1013.9
20210920034627 12 149 0.0 0.0 0.00 0.00 0.00 96 1014.1
20210920034118 12 149 0.0 0.0 0.00 0.00 0.00 95 1013.7
20210920033612 12 150 0.0 0.0 0.00 0.00 0.00 95 1014.1
20210920033104 12 143 0.0 0.0 0.00 0.00 0.00 95 1014.1
20210920032555 12 143 0.0 0.0 0.00 0.00 0.00 95 1014.1
20210920032048 12 143 0.0 0.0 0.00 0.00 0.00 95 1013.7
20210920031538 12 143 0.0 0.0 0.00 0.00 0.00 95 1013.5
20210920031023 12 160 0.0 0.0 0.00 0.00 0.00 95 1013.7
20210920030513 12 145 0.0 0.0 0.00 0.00 0.00 95 1013.6
20210920030012 12 144 0.0 0.0 0.00 0.00 0.00 95 1013.6
20210920025455 13 144 0.0 0.0 0.00 0.00 0.00 95 1013.5
20210920024949 13 144 0.0 0.0 0.00 0.00 0.00 94 1013.4
20210920024440 13 144 0.0 0.0 0.00 0.00 0.00 94 1013.3
20210920023932 13 144 0.0 0.0 0.00 0.00 0.00 94 1013.7
20210920023424 13 146 0.0 0.0 0.00 0.00 0.00 94 1013.5
20210920022918 13 137 0.0 0.0 0.00 0.00 0.00 94 1013.5
20210920022400 13 136 0.0 0.0 0.00 0.00 0.00 94 1013.5
20210920021849 13 142 0.0 0.0 0.00 0.00 0.00 94 1013.4
20210920021343 13 142 0.0 0.0 0.00 0.00 0.00 94 1013.6
20210920020832 13 142 0.0 0.0 0.00 0.00 0.00 93 1013.3
20210920020325 13 143 0.0 0.0 0.00 0.00 0.00 93 1013.2
20210920015818 13 142 0.0 0.0 0.00 0.00 0.00 93 1013.4
20210920015308 13 142 0.0 0.0 0.00 0.00 0.00 93 1013.0
20210920014803 13 142 0.0 0.0 0.00 0.00 0.00 93 1013.0
20210920014253 13 142 0.0 0.0 0.00 0.00 0.00 93 1012.9
20210920013748 13 142 0.0 0.0 0.00 0.00 0.00 93 1013.0
20210920013238 13 142 0.0 0.0 0.00 0.00 0.00 93 1012.8
20210920012729 13 142 0.0 0.0 0.00 0.00 0.00 93 1012.8
20210920012221 13 142 0.0 0.0 0.00 0.00 0.00 92 1012.7
20210920011713 13 142 0.0 0.0 0.00 0.00 0.00 92 1012.6
20210920011205 13 142 0.0 0.0 0.00 0.00 0.00 92 1012.6
20210920010658 14 142 0.0 0.0 0.00 0.00 0.00 92 1012.7
20210920010151 14 142 0.0 0.0 0.00 0.00 0.00 92 1012.5
20210920005645 14 142 0.0 0.0 0.00 0.00 0.00 91 1012.6
20210920005133 14 142 0.0 0.0 0.00 0.00 0.00 91 1012.6
20210920004632 14 142 0.0 0.0 0.00 0.00 0.00 91 1012.6
20210920004117 14 142 0.0 0.0 0.00 0.00 0.00 91 1012.4
20210920003611 15 142 0.0 0.0 0.00 0.00 0.00 90 1012.4
20210920003108 15 142 0.0 0.0 0.00 0.00 0.00 90 1012.5
20210920002543 15 141 0.0 0.0 0.00 0.00 0.00 89 1012.2
20210920002036 15 141 0.0 0.0 0.00 0.00 0.00 89 1012.1
20210920001527 15 141 0.0 0.0 0.00 0.00 0.00 89 1012.1
20210920001009 15 141 0.0 0.0 0.00 0.00 0.00 88 1012.0
20210920000459 15 141 0.0 0.0 0.00 0.00 0.00 88 1012.0
20210919235953 15 142 0.0 0.0 0.00 0.00 0.00 87 1011.5
20210919235442 15 142 0.0 0.0 0.00 0.00 0.00 87 1011.7
20210919234935 15 142 0.0 0.0 0.00 0.00 0.00 86 1011.7
20210919234427 15 142 0.0 1.6 0.00 0.00 0.00 87 1011.3
20210919233919 15 146 0.0 1.6 0.00 0.00 0.00 86 1011.5
20210919233410 15 144 0.0 0.0 0.00 0.00 0.00 86 1011.4
20210919232903 16 144 0.0 0.0 0.00 0.00 0.00 85 1011.3
20210919232355 16 144 0.0 0.0 0.00 0.00 0.00 84 1011.1
20210919231847 16 144 0.0 0.0 0.00 0.00 0.00 82 1011.2
20210919231341 16 145 0.0 0.0 0.00 0.00 0.00 82 1010.9
20210919230832 16 145 0.0 0.0 0.00 0.00 0.00 81 1011.4
20210919230312 16 145 0.0 0.0 0.00 0.00 0.00 81 1011.0
20210919225803 17 144 0.0 0.0 0.00 0.00 0.00 80 1011.0
20210919225256 17 145 0.0 0.0 0.00 0.00 0.00 78 1010.8
20210919224750 17 145 0.0 0.0 0.00 0.00 0.00 77 1010.9
20210919224239 17 144 0.0 0.0 0.00 0.00 0.00 76 1010.8
20210919223733 18 144 0.0 0.0 0.00 0.00 0.00 75 1010.7
20210919223224 18 145 0.0 0.0 0.00 0.00 0.00 75 1010.7
20210919222716 18 144 0.0 0.0 0.00 0.00 0.00 75 1010.4
20210919222208 18 144 0.0 0.0 0.00 0.00 0.00 73 1010.4
20210919221700 19 144 0.0 1.6 0.00 0.00 0.00 72 1010.4
20210919221151 19 146 0.0 1.6 0.00 0.00 0.00 70 1010.5
20210919220646 20 145 0.0 1.6 0.00 0.00 0.00 69 1010.1
20210919220136 20 133 0.0 0.0 0.00 0.00 0.00 64 1010.4
20210919215627 20 133 0.0 1.6 0.00 0.00 0.00 62 1010.5
20210919215119 20 136 0.0 3.2 0.00 0.00 0.00 63 1010.3
20210919214605 21 136 0.0 3.2 0.00 0.00 0.00 63 1010.3
20210919214053 21 131 0.0 9.7 0.00 0.00 0.00 60 1010.3
20210919213544 21 97 0.0 9.7 0.00 0.00 0.00 60 1010.1
20210919213038 22 146 1.6 6.4 0.00 0.00 0.00 57 1010.1
20210919212529 22 137 0.0 6.4 0.00 0.00 0.00 55 1010.2
20210919212020 22 138 1.6 6.4 0.00 0.00 0.00 52 1010.2
20210919211513 22 324 3.2 6.4 0.00 0.00 0.00 50 1010.1
20210919211005 22 133 0.0 4.8 0.00 0.00 0.00 55 1010.3
20210919210457 22 133 0.0 4.8 0.00 0.00 0.00 56 1010.2
20210919205949 23 127 0.0 4.8 0.00 0.00 0.00 54 1010.0
20210919205441 22 178 3.2 4.8 0.00 0.00 0.00 50 1010.0
20210919204932 22 124 0.0 3.2 0.00 0.00 0.00 58 1010.1
20210919204426 22 120 0.0 4.8 0.00 0.00 0.00 56 1010.0
20210919203916 22 115 0.0 4.8 0.00 0.00 0.00 56 1009.9
20210919203408 22 115 0.0 4.8 0.00 0.00 0.00 55 1009.9
20210919202902 23 147 1.6 4.8 0.00 0.00 0.00 53 1010.0
20210919202354 23 153 0.0 1.6 0.00 0.00 0.00 54 1009.9
20210919201846 23 127 0.0 3.2 0.00 0.00 0.00 52 1010.1
20210919201336 23 164 3.2 3.2 0.00 0.00 0.00 52 1009.9
20210919200828 23 139 0.0 4.8 0.00 0.00 0.00 51 1009.8
20210919200323 22 151 0.0 6.4 0.00 0.00 0.00 54 1010.1
20210919195813 23 147 0.0 12.9 0.00 0.00 0.00 51 1010.2
20210919195305 23 205 1.6 12.9 0.00 0.00 0.00 48 1009.8
20210919194758 23 56 1.6 9.7 0.00 0.00 0.00 50 1010.0
20210919194247 23 120 0.0 6.4 0.00 0.00 0.00 50 1010.1
20210919193740 23 282 4.8 6.4 0.00 0.00 0.00 49 1009.8
20210919193230 23 146 0.0 6.4 0.00 0.00 0.00 51 1010.2
20210919192723 23 243 1.6 4.8 0.00 0.00 0.00 48 1010.1
20210919192215 23 113 0.0 3.2 0.00 0.00 0.00 50 1010.3
20210919191707 23 137 0.0 3.2 0.00 0.00 0.00 54 1010.1
20210919191158 23 152 0.0 3.2 0.00 0.00 0.00 50 1010.2
20210919190654 23 113 1.6 4.8 0.00 0.00 0.00 48 1010.2
20210919190145 23 43 1.6 11.3 0.00 0.00 0.00 46 1010.1
20210919185625 23 128 1.6 11.3 0.00 0.00 0.00 52 1010.3
20210919185115 23 166 3.2 6.4 0.00 0.00 0.00 49 1010.1
20210919184608 23 128 0.0 6.4 0.00 0.00 0.00 55 1010.0
20210919184101 23 274 1.6 9.7 0.00 0.00 0.00 48 1010.2
20210919183553 23 82 1.6 9.7 0.00 0.00 0.00 52 1010.2
20210919183045 23 185 1.6 14.5 0.00 0.00 0.00 50 1010.3
20210919182537 23 277 4.8 14.5 0.00 0.00 0.00 50 1010.4
20210919182027 23 149 0.0 4.8 0.00 0.00 0.00 53 1010.2
20210919181519 23 158 0.0 4.8 0.00 0.00 0.00 51 1010.1
20210919181010 23 187 1.6 4.8 0.00 0.00 0.00 51 1010.3
20210919180504 23 114 1.6 9.7 0.00 0.00 0.00 51 1010.3
20210919175955 23 160 0.0 9.7 0.00 0.00 0.00 49 1010.5
20210919175446 23 109 6.4 9.7 0.00 0.00 0.00 50 1010.3
20210919174940 23 140 0.0 9.7 0.00 0.00 0.00 52 1010.3
20210919174431 23 91 1.6 12.9 0.00 0.00 0.00 53 1010.5
20210919173922 23 349 1.6 6.4 0.00 0.00 0.00 56 1010.4
20210919173415 23 237 1.6 9.7 0.00 0.00 0.00 52 1010.6
20210919172907 22 157 0.0 9.7 0.00 0.00 0.00 54 1010.6
20210919172400 23 10 4.8 9.7 0.00 0.00 0.00 53 1010.5
20210919171850 23 144 0.0 14.5 0.00 0.00 0.00 56 1010.5
20210919171346 23 205 6.4 14.5 0.00 0.00 0.00 53 1010.5
20210919170822 22 147 0.0 12.9 0.00 0.00 0.00 56 1010.6
20210919170313 22 117 3.2 9.7 0.00 0.00 0.00 58 1010.8
20210919165805 22 165 1.6 11.3 0.00 0.00 0.00 57 1010.7
20210919165258 22 137 1.6 11.3 0.00 0.00 0.00 54 1010.9
20210919164749 23 119 3.2 6.4 0.00 0.00 0.00 56 1011.0
20210919164239 23 147 0.0 9.7 0.00 0.00 0.00 58 1010.8
20210919163731 23 44 4.8 9.7 0.00 0.00 0.00 54 1010.8
20210919163224 22 168 3.2 11.3 0.00 0.00 0.00 58 1010.5
20210919162704 22 26 3.2 11.3 0.00 0.00 0.00 62 1010.7
20210919162155 22 327 3.2 9.7 0.00 0.00 0.00 57 1010.6
20210919161648 22 145 0.0 9.7 0.00 0.00 0.00 59 1010.7
20210919161138 22 55 0.0 11.3 0.00 0.00 0.00 64 1010.7
20210919160629 21 347 4.8 11.3 0.00 0.00 0.00 60 1010.9
20210919160119 21 152 1.6 11.3 0.00 0.00 0.00 62 1010.8
20210919155611 22 113 6.4 11.3 0.00 0.00 0.00 61 1010.7
20210919155107 22 286 3.2 4.8 0.00 0.00 0.00 61 1010.7
20210919154555 22 141 0.0 6.4 0.00 0.00 0.00 61 1010.4
20210919154047 21 172 0.0 6.4 0.00 0.00 0.00 66 1010.8
20210919153535 21 132 1.6 6.4 0.00 0.00 0.00 65 1010.7
20210919153033 21 137 0.0 11.3 0.00 0.00 0.00 67 1010.6
20210919152520 21 353 3.2 11.3 0.00 0.00 0.00 65 1010.5
20210919152013 21 118 1.6 4.8 0.00 0.00 0.00 64 1010.7
20210919151504 22 152 0.0 12.9 0.00 0.00 0.00 65 1010.5
20210919150955 22 155 0.0 12.9 0.00 0.00 0.00 63 1010.4
20210919150448 21 89 4.8 6.4 0.00 0.00 0.00 63 1010.2
20210919145942 21 96 0.0 11.3 0.00 0.00 0.00 66 1010.6
20210919145432 21 18 3.2 9.7 0.00 0.00 0.00 63 1010.4
20210919144912 21 92 1.6 6.4 0.00 0.00 0.00 67 1010.4
20210919144404 21 138 1.6 6.4 0.00 0.00 0.00 64 1010.4
20210919143856 21 137 0.0 6.4 0.00 0.00 0.00 68 1010.2
20210919143351 21 343 0.0 9.7 0.00 0.00 0.00 67 1010.4
20210919142840 21 240 1.6 9.7 0.00 0.00 0.00 66 1010.1
20210919142332 21 136 0.0 6.4 0.00 0.00 0.00 66 1010.2
20210919141825 21 139 0.0 9.7 0.00 0.00 0.00 67 1010.2
20210919141315 20 144 0.0 9.7 0.00 0.00 0.00 68 1010.4
20210919140805 21 130 0.0 9.7 0.00 0.00 0.00 67 1010.1
20210919140258 20 97 3.2 12.9 0.00 0.00 0.00 67 1010.2
20210919135750 20 153 1.6 9.7 0.00 0.00 0.00 67 1010.2
20210919135242 20 64 1.6 9.7 0.00 0.00 0.00 69 1010.1
20210919134734 20 96 1.6 9.7 0.00 0.00 0.00 70 1009.9
20210919134227 20 149 1.6 9.7 0.00 0.00 0.00 70 1010.0
20210919133716 20 135 0.0 6.4 0.00 0.00 0.00 72 1010.0
20210919133209 20 44 0.0 6.4 0.00 0.00 0.00 72 1010.0
20210919132652 19 139 0.0 11.3 0.00 0.00 0.00 73 1009.9
20210919132142 18 167 1.6 11.3 0.00 0.00 0.00 73 1010.0
20210919131637 18 147 0.0 6.4 0.00 0.00 0.00 76 1009.9
20210919131134 18 116 1.6 9.7 0.00 0.00 0.00 76 1009.9
20210919130619 18 123 3.2 9.7 0.00 0.00 0.00 78 1009.9
20210919130112 17 99 3.2 9.7 0.00 0.00 0.00 79 1009.7
20210919125604 17 117 1.6 14.5 0.00 0.00 0.00 80 1009.7
20210919125054 17 100 0.0 11.3 0.00 0.00 0.00 80 1009.8
20210919124546 17 129 3.2 16.1 0.00 0.00 0.00 80 1010.0
20210919124037 17 114 1.6 20.9 0.00 0.00 0.00 80 1009.8
20210919123530 17 68 4.8 20.9 0.00 0.00 0.00 81 1009.7
20210919123024 17 112 0.0 14.5 0.00 0.00 0.00 81 1009.7
20210919122513 17 144 3.2 9.7 0.00 0.00 0.00 81 1009.6
20210919122006 17 28 3.2 9.7 0.00 0.00 0.00 82 1009.7
20210919121457 17 137 1.6 9.7 0.00 0.00 0.00 83 1009.4
20210919120951 17 208 1.6 9.7 0.00 0.00 0.00 82 1009.4
20210919120443 17 85 1.6 11.3 0.00 0.00 0.00 83 1009.2
20210919115938 17 120 1.6 4.8 0.00 0.00 0.00 84 1009.1
20210919115427 17 66 3.2 6.4 0.00 0.00 0.00 84 1008.9
20210919114917 17 156 1.6 12.9 0.00 0.00 0.00 84 1009.1
20210919114409 17 70 3.2 12.9 0.00 0.00 0.00 84 1009.0
20210919113905 17 78 4.8 9.7 0.00 0.00 0.00 85 1009.0
20210919113353 16 141 1.6 11.3 0.00 0.00 0.00 86 1009.1
20210919112845 16 54 0.0 11.3 0.00 0.00 0.00 86 1008.9
20210919112339 16 109 0.0 11.3 0.00 0.00 0.00 86 1008.6
20210919111833 16 141 0.0 6.4 0.00 0.00 0.00 87 1008.4
20210919111322 16 13 3.2 9.7 0.00 0.00 0.00 87 1008.3
20210919110814 17 149 1.6 9.7 0.00 0.00 0.00 87 1008.2
20210919110309 17 120 3.2 9.7 0.00 0.00 0.00 87 1008.3
20210919105759 17 328 3.2 9.7 0.00 0.00 0.00 87 1008.2
20210919105249 17 129 1.6 9.7 0.00 0.00 0.00 87 1008.0
20210919104741 17 332 3.2 9.7 0.00 0.00 0.00 87 1008.0
20210919104235 17 140 0.0 6.4 0.00 0.00 0.00 87 1008.0
20210919103724 17 94 1.6 6.4 0.00 0.00 0.00 87 1007.9
20210919103220 17 144 1.6 6.4 0.00 0.00 0.00 87 1007.8
20210919102709 17 53 0.0 9.7 0.00 0.00 0.00 87 1008.0
20210919102201 17 343 3.2 9.7 0.00 0.00 0.00 87 1007.8
20210919101653 17 138 0.0 6.4 0.00 0.00 0.00 87 1007.6
20210919101151 17 359 3.2 6.4 0.00 0.00 0.00 87 1007.6
20210919100638 17 140 0.0 6.4 0.00 0.00 0.00 87 1007.5
20210919100130 17 359 3.2 6.4 0.00 0.00 0.00 87 1007.7
20210919095621 17 26 1.6 6.4 0.00 0.00 0.00 88 1007.0
20210919095113 17 139 0.0 9.7 0.00 0.00 0.00 88 1007.1
20210919094606 18 14 3.2 9.7 0.00 0.00 0.00 88 1007.2
20210919094100 18 116 1.6 9.7 0.00 0.00 0.00 89 1007.1
20210919093552 18 67 4.8 11.3 0.00 0.00 0.00 89 1006.9
20210919093041 17 140 1.6 11.3 0.00 0.00 0.00 91 1007.0
20210919092533 17 49 1.6 9.7 0.00 0.00 0.00 93 1007.0
20210919092027 17 1 0.0 6.4 0.00 0.00 0.00 94 1006.9
20210919091518 18 354 1.6 6.4 0.00 0.00 0.00 95 1006.7
20210919091009 18 133 0.0 4.8 0.00 0.00 0.00 95 1006.7
20210919090501 18 128 0.0 4.8 0.00 0.00 0.00 95 1006.6
20210919085953 18 140 0.0 4.8 0.00 0.00 0.00 95 1006.5
20210919085445 18 115 1.6 6.4 0.00 0.00 0.00 95 1006.4
20210919084938 18 24 3.2 6.4 0.00 0.00 0.00 95 1006.7
20210919084428 18 102 0.0 3.2 0.00 0.00 0.00 96 1006.4
20210919083923 18 153 1.6 4.8 0.00 0.00 0.00 96 1006.3
20210919083413 18 70 0.0 4.8 0.00 0.00 0.00 96 1006.5
20210919082906 18 134 0.0 4.8 0.00 0.00 0.00 95 1006.2
20210919082356 18 143 0.0 1.6 0.00 0.00 0.00 95 1006.1
20210919081849 18 128 0.0 1.6 0.00 0.00 0.00 95 1006.1
20210919081330 18 144 0.0 1.6 0.00 0.00 0.00 95 1006.2
20210919080822 18 139 0.0 3.2 0.00 0.00 0.00 95 1006.2
20210919080314 18 139 0.0 3.2 0.00 0.00 0.00 95 1006.2
20210919075806 18 23 1.6 6.4 0.00 0.00 0.00 95 1005.7
20210919075305 19 200 1.6 6.4 0.00 0.00 0.00 95 1006.0
20210919074751 19 124 0.0 4.8 0.00 0.00 0.00 95 1006.0
20210919074243 19 144 1.6 4.8 0.00 0.00 0.00 95 1005.9
20210919073734 19 25 1.6 3.2 0.00 0.00 0.00 95 1005.9
20210919073224 19 145 0.0 1.6 0.00 0.00 0.00 95 1006.0
20210919072718 19 150 0.0 3.2 0.00 0.00 0.00 95 1005.9
20210919072209 19 143 0.0 4.8 0.00 0.00 0.00 95 1006.0
20210919071702 19 120 0.0 9.7 0.00 0.00 0.00 95 1005.9
20210919071152 19 123 3.2 9.7 0.00 0.00 0.00 95 1005.7
20210919070645 19 137 0.0 9.7 0.00 0.00 0.00 96 1006.0
20210919070137 19 79 1.6 9.7 0.00 0.00 0.00 96 1005.8
20210919065634 19 167 3.2 6.4 0.00 0.00 0.00 96 1006.1
20210919065121 19 128 1.6 6.4 0.00 0.00 0.00 96 1006.0
20210919064612 19 136 1.6 4.8 0.00 0.00 0.00 96 1005.6
20210919064105 19 34 1.6 3.2 0.00 0.00 0.00 96 1005.8
20210919063555 19 124 0.0 3.2 0.00 0.00 0.00 96 1005.9